Tracking 25620 objects as of 18-May-2022
HD Live streaming from Space Station
objects crossing your sky now

COSMOS 2251 DEB

Track COSMOS 2251 DEB now!
10-day predictions


NORAD ID: 36447
Int'l Code: 1993-036BAW
Perigee: 500.5 km
Apogee: 592.1 km
Inclination: 73.9 °
Period: 95.4 minutes
Semi major axis: 6917 km
RCS: 0.0095 m2 (small)
Launch date: June 16, 1993
Source: Commonwealth of Independent States (former USSR) (CIS)
Launch site: PLESETSK MISSILE AND SPACE COMPLEX (PKMTR)

Note: This is SATELLITE DEBRIS
aabbcc
Your satellite tracking list
Your tracking list is empty




NASA's NSSDC Master Catalog

Two Line Element Set (TLE):
1 36447U 93036BAW 22138.09704936  .00031077  00000-0  18597-2 0  9999
2 36447  73.9297  58.7028 0066184 280.6047  78.7694 15.09039373683418
Source of the keplerian elements: AFSPC